Location: Bacharowice
(49.9333°N, 19.5833°E)
Time: 10:54:47
(UTC+00:00)

Cosmos 1151 Rocket - Pass Details

Date: 11 May 2021
Orbit: 591 x 616 km, 82.5° (Epoch: 22 June)

Event Time Altitude Azimuth Distance (km) Brightness Sun altitude
Rises 19:56:44 0° 203° (SSW) 2,864 6.2 -13.2°
Reaches altitude 10° 19:59:00 10° 208° (SSW) 1,967 5.4 -13.4°
Maximum altitude 20:03:14 50° 285° (WNW) 794 3.9 -13.9°
Drops below altitude 10° 20:07:32 10° 1° (N) 1,991 6.5 -14.3°
Sets 20:09:50 0° 7° (N) 2,903 7.3 -14.5°
